Time,TemperatureF,DewpointF,PressureIn,WindDirection,WindDirectionDegrees,WindSpeedMPH,WindSpeedGustMPH,Humidity,HourlyPrecipIn,Conditions,Clouds,dailyrainin,SoftwareType,DateUTC
2013-02-21 00:03:00,22.0,17.0,30.27,North,355,0.0,4.0,81,0.00,,,0.00,,2013-02-21 05:03:00,
2013-02-21 00:12:00,22.0,17.0,30.27,North,355,0.0,4.0,81,0.00,,,0.00,,2013-02-21 05:12:00,
2013-02-21 00:22:00,22.0,17.0,30.27,North,5,1.0,4.0,80,0.00,,,0.00,,2013-02-21 05:22:00,
2013-02-21 00:35:00,22.0,17.0,30.27,NNW,346,1.0,4.0,81,0.00,,,0.00,,2013-02-21 05:35:00,
2013-02-21 00:45:00,22.0,17.0,30.27,NNW,346,1.0,4.0,81,0.00,,,0.00,,2013-02-21 05:45:00,
2013-02-21 01:01:00,22.0,17.0,30.27,NNW,329,2.0,4.0,81,0.00,,,0.00,,2013-02-21 06:01:00,
2013-02-21 01:11:00,22.0,17.0,30.27,NNW,338,0.0,3.0,82,0.00,,,0.00,,2013-02-21 06:11:00,
2013-02-21 01:21:00,22.0,17.0,30.28,NW,315,1.0,2.0,82,0.00,,,0.00,,2013-02-21 06:21:00,
2013-02-21 01:31:00,22.0,17.0,30.28,NNW,336,1.0,3.0,81,0.00,,,0.00,,2013-02-21 06:31:00,
2013-02-21 01:41:00,22.0,17.0,30.28,NNW,336,1.0,3.0,81,0.00,,,0.00,,2013-02-21 06:41:00,
2013-02-21 01:51:00,22.0,17.0,30.28,NNW,344,1.0,2.0,82,0.00,,,0.00,,2013-02-21 06:51:00,
2013-02-21 02:01:00,22.0,17.0,30.28,NNW,344,1.0,2.0,82,0.00,,,0.00,,2013-02-21 07:01:00,
2013-02-21 02:11:00,22.0,17.0,30.28,NNW,344,1.0,2.0,82,0.00,,,0.00,,2013-02-21 07:11:00,
2013-02-21 02:21:00,22.0,17.0,30.28,NNW,346,1.0,2.0,82,0.00,,,0.00,,2013-02-21 07:21:00,
2013-02-21 02:32:00,22.0,18.0,30.27,NNW,329,1.0,3.0,83,0.00,,,0.00,,2013-02-21 07:32:00,
2013-02-21 02:42:00,22.0,18.0,30.28,NNW,327,0.0,2.0,84,0.00,,,0.00,,2013-02-21 07:42:00,
2013-02-21 02:52:00,22.0,18.0,30.28,NNW,327,0.0,2.0,84,0.00,,,0.00,,2013-02-21 07:52:00,
2013-02-21 03:01:00,22.0,18.0,30.28,NW,304,1.0,2.0,84,0.00,,,0.00,,2013-02-21 08:01:00,
2013-02-21 03:11:00,22.0,18.0,30.28,NW,304,1.0,2.0,84,0.00,,,0.00,,2013-02-21 08:11:00,
2013-02-21 03:21:00,22.0,18.0,30.28,NW,304,1.0,2.0,85,0.00,,,0.00,,2013-02-21 08:21:00,
2013-02-21 03:32:00,22.0,18.0,30.28,NW,304,0.0,1.0,86,0.00,,,0.00,,2013-02-21 08:32:00,
2013-02-21 03:42:00,22.0,18.0,30.28,NW,304,0.0,1.0,86,0.00,,,0.00,,2013-02-21 08:42:00,
2013-02-21 03:52:00,22.0,18.0,30.27,NW,304,0.0,2.0,86,0.00,,,0.00,,2013-02-21 08:52:00,
2013-02-21 04:01:00,22.0,18.0,30.28,NW,311,1.0,2.0,86,0.00,,,0.00,,2013-02-21 09:01:00,
2013-02-21 04:11:00,22.0,18.0,30.28,NW,311,1.0,2.0,86,0.00,,,0.00,,2013-02-21 09:11:00,
2013-02-21 04:22:00,22.0,19.0,30.28,NW,311,0.0,1.0,87,0.00,,,0.00,,2013-02-21 09:22:00,
2013-02-21 04:32:00,22.0,18.0,30.28,NNW,348,1.0,3.0,86,0.00,,,0.00,,2013-02-21 09:32:00,
2013-02-21 04:42:00,22.0,18.0,30.28,NNW,348,1.0,3.0,86,0.00,,,0.00,,2013-02-21 09:42:00,
2013-02-21 04:52:00,22.0,18.0,30.27,NNW,348,0.0,1.0,86,0.00,,,0.00,,2013-02-21 09:52:00,
2013-02-21 05:01:00,22.0,18.0,30.28,North,355,0.0,1.0,86,0.00,,,0.00,,2013-02-21 10:01:00,
2013-02-21 05:11:00,22.0,18.0,30.28,North,355,0.0,1.0,86,0.00,,,0.00,,2013-02-21 10:11:00,
2013-02-21 05:21:00,22.0,18.0,30.28,NW,317,1.0,2.0,86,0.00,,,0.00,,2013-02-21 10:21:00,
2013-02-21 05:31:00,22.0,18.0,30.28,North,351,1.0,3.0,85,0.00,,,0.00,,2013-02-21 10:31:00,
2013-02-21 05:41:00,22.0,18.0,30.28,North,351,1.0,3.0,85,0.00,,,0.00,,2013-02-21 10:41:00,
2013-02-21 05:51:00,22.0,18.0,30.28,North,351,2.0,4.0,85,0.00,,,0.00,,2013-02-21 10:51:00,
2013-02-21 06:01:00,22.0,18.0,30.29,North,351,1.0,3.0,84,0.00,,,0.00,,2013-02-21 11:01:00,
2013-02-21 06:11:00,22.0,18.0,30.29,North,351,1.0,3.0,84,0.00,,,0.00,,2013-02-21 11:11:00,
2013-02-21 06:21:00,22.0,18.0,30.29,North,360,2.0,4.0,84,0.00,,,0.00,,2013-02-21 11:21:00,
2013-02-21 06:31:00,22.0,18.0,30.30,NE,49,2.0,5.0,84,0.00,,,0.00,,2013-02-21 11:31:00,
2013-02-21 06:41:00,22.0,18.0,30.30,NE,49,2.0,5.0,84,0.00,,,0.00,,2013-02-21 11:41:00,
2013-02-21 06:51:00,21.0,17.0,30.31,NE,40,0.0,4.0,84,0.00,,,0.00,,2013-02-21 11:51:00,
2013-02-21 07:01:00,21.0,17.0,30.31,North,351,1.0,3.0,84,0.00,,,0.00,,2013-02-21 12:01:00,
2013-02-21 07:11:00,21.0,17.0,30.31,North,351,1.0,3.0,84,0.00,,,0.00,,2013-02-21 12:11:00,
2013-02-21 07:21:00,21.0,17.0,30.31,NNE,28,1.0,2.0,83,0.00,,,0.00,,2013-02-21 12:21:00,
2013-02-21 07:32:00,21.0,17.0,30.33,North,355,0.0,2.0,83,0.00,,,0.00,,2013-02-21 12:32:00,
2013-02-21 07:43:00,21.0,17.0,30.33,North,355,0.0,2.0,83,0.00,,,0.00,,2013-02-21 12:43:00,
2013-02-21 07:52:00,21.0,17.0,30.31,North,355,0.0,2.0,84,0.00,,,0.00,,2013-02-21 12:52:00,
2013-02-21 08:02:00,20.0,16.0,30.30,NE,40,2.0,4.0,83,0.00,,,0.00,,2013-02-21 13:02:00,
2013-02-21 08:12:00,20.0,16.0,30.30,NE,40,2.0,4.0,83,0.00,,,0.00,,2013-02-21 13:12:00,
2013-02-21 08:22:00,21.0,17.0,30.30,NE,37,1.0,3.0,84,0.00,,,0.00,,2013-02-21 13:22:00,
2013-02-21 08:32:00,21.0,17.0,30.30,NNE,29,1.0,4.0,83,0.00,,,0.00,,2013-02-21 13:32:00,
2013-02-21 08:42:00,21.0,17.0,30.30,NNE,29,1.0,4.0,83,0.00,,,0.00,,2013-02-21 13:42:00,
2013-02-21 08:51:00,21.0,17.0,30.31,ENE,66,1.0,3.0,83,0.00,,,0.00,,2013-02-21 13:51:00,
2013-02-21 09:02:00,21.0,17.0,30.32,ENE,70,1.0,3.0,83,0.00,,,0.00,,2013-02-21 14:02:00,
2013-02-21 09:11:00,21.0,17.0,30.32,ENE,70,1.0,3.0,83,0.00,,,0.00,,2013-02-21 14:11:00,
2013-02-21 09:22:00,21.0,17.0,30.32,ENE,70,1.0,3.0,83,0.00,,,0.00,,2013-02-21 14:22:00,
2013-02-21 09:32:00,21.0,17.0,30.32,East,80,1.0,4.0,83,0.00,,,0.00,,2013-02-21 14:32:00,
2013-02-21 09:42:00,21.0,17.0,30.32,East,80,1.0,4.0,83,0.00,,,0.00,,2013-02-21 14:42:00,
2013-02-21 09:52:00,22.0,17.0,30.33,NNW,344,2.0,3.0,82,0.00,,,0.00,,2013-02-21 14:52:00,
2013-02-21 10:02:00,22.0,17.0,30.33,NNE,15,1.0,3.0,81,0.00,,,0.00,,2013-02-21 15:02:00,
2013-02-21 10:12:00,22.0,17.0,30.33,NNE,15,1.0,3.0,81,0.00,,,0.00,,2013-02-21 15:12:00,
2013-02-21 10:22:00,22.0,18.0,30.33,East,86,2.0,6.0,83,0.00,,,0.00,,2013-02-21 15:22:00,
2013-02-21 10:32:00,22.0,17.0,30.33,East,89,2.0,5.0,81,0.00,,,0.00,,2013-02-21 15:32:00,
2013-02-21 10:42:00,22.0,17.0,30.33,East,89,2.0,5.0,81,0.00,,,0.00,,2013-02-21 15:42:00,
2013-02-21 10:51:00,22.0,17.0,30.32,East,86,2.0,6.0,81,0.00,,,0.00,,2013-02-21 15:51:00,
2013-02-21 11:02:00,23.0,18.0,30.32,East,81,3.0,7.0,82,0.00,,,0.00,,2013-02-21 16:02:00,
2013-02-21 11:12:00,23.0,18.0,30.32,East,81,3.0,7.0,82,0.00,,,0.00,,2013-02-21 16:12:00,
2013-02-21 11:22:00,24.0,19.0,30.29,ENE,59,1.0,6.0,82,0.00,,,0.00,,2013-02-21 16:22:00,
2013-02-21 11:32:00,24.0,19.0,30.29,NE,54,1.0,7.0,82,0.00,,,0.00,,2013-02-21 16:32:00,
2013-02-21 11:42:00,23.0,18.0,30.33,East,85,3.0,8.0,80,0.00,,,0.00,,2013-02-21 16:42:00,
2013-02-21 11:52:00,23.0,18.0,30.33,East,85,3.0,8.0,80,0.00,,,0.00,,2013-02-21 16:52:00,
2013-02-21 12:01:00,23.0,18.0,30.34,East,90,4.0,10.0,80,0.00,,,0.00,,2013-02-21 17:01:00,
2013-02-21 12:11:00,23.0,18.0,30.34,East,90,4.0,10.0,80,0.00,,,0.00,,2013-02-21 17:11:00,
2013-02-21 12:21:00,23.0,18.0,30.33,East,93,3.0,6.0,81,0.00,,,0.00,,2013-02-21 17:21:00,
2013-02-21 12:32:00,24.0,19.0,30.32,East,100,3.0,6.0,80,0.00,,,0.00,,2013-02-21 17:32:00,
2013-02-21 12:42:00,24.0,19.0,30.32,East,100,3.0,6.0,80,0.00,,,0.00,,2013-02-21 17:42:00,
2013-02-21 12:52:00,25.0,20.0,30.30,ENE,76,5.0,7.0,80,0.00,,,0.00,,2013-02-21 17:52:00,
2013-02-21 13:02:00,25.0,19.0,30.30,East,96,3.0,5.0,79,0.00,,,0.00,,2013-02-21 18:02:00,
2013-02-21 13:12:00,25.0,19.0,30.30,East,96,3.0,5.0,79,0.00,,,0.00,,2013-02-21 18:12:00,
2013-02-21 13:22:00,25.0,20.0,30.30,ENE,69,2.0,8.0,80,0.00,,,0.00,,2013-02-21 18:22:00,
2013-02-21 13:32:00,25.0,20.0,30.27,ESE,110,7.0,11.0,80,0.00,,,0.00,,2013-02-21 18:32:00,
2013-02-21 13:42:00,25.0,20.0,30.27,ESE,110,7.0,11.0,80,0.00,,,0.00,,2013-02-21 18:42:00,
2013-02-21 13:52:00,25.0,20.0,30.27,East,96,4.0,10.0,80,0.00,,,0.00,,2013-02-21 18:52:00,
2013-02-21 14:01:00,26.0,20.0,30.26,ENE,73,5.0,9.0,79,0.00,,,0.00,,2013-02-21 19:01:00,
2013-02-21 14:12:00,26.0,20.0,30.26,ENE,73,5.0,9.0,79,0.00,,,0.00,,2013-02-21 19:12:00,
2013-02-21 14:21:00,26.0,21.0,30.25,East,84,3.0,9.0,80,0.00,,,0.00,,2013-02-21 19:21:00,
2013-02-21 14:32:00,26.0,20.0,30.24,ESE,103,8.0,13.0,79,0.00,,,0.00,,2013-02-21 19:32:00,
2013-02-21 14:42:00,26.0,20.0,30.24,ESE,103,8.0,13.0,79,0.00,,,0.00,,2013-02-21 19:42:00,
2013-02-21 14:52:00,26.0,20.0,30.22,East,91,8.0,13.0,79,0.00,,,0.00,,2013-02-21 19:52:00,
2013-02-21 15:01:00,26.0,21.0,30.21,ENE,63,4.0,13.0,81,0.00,,,0.00,,2013-02-21 20:01:00,
2013-02-21 15:11:00,26.0,21.0,30.18,NE,54,4.0,9.0,81,0.00,,,0.00,,2013-02-21 20:11:00,
2013-02-21 15:21:00,26.0,21.0,30.18,NE,54,4.0,9.0,81,0.00,,,0.00,,2013-02-21 20:21:00,
2013-02-21 15:32:00,26.0,20.0,30.18,East,85,5.0,9.0,79,0.00,,,0.00,,2013-02-21 20:32:00,
2013-02-21 15:42:00,26.0,20.0,30.18,East,85,5.0,9.0,79,0.00,,,0.00,,2013-02-21 20:42:00,
2013-02-21 15:52:00,26.0,20.0,30.21,East,101,7.0,14.0,79,0.00,,,0.00,,2013-02-21 20:52:00,
2013-02-21 16:02:00,26.0,20.0,30.22,ESE,102,9.0,13.0,79,0.00,,,0.00,,2013-02-21 21:02:00,
2013-02-21 16:12:00,26.0,20.0,30.22,ESE,102,9.0,13.0,79,0.00,,,0.00,,2013-02-21 21:12:00,
2013-02-21 16:22:00,26.0,20.0,30.23,East,90,6.0,10.0,79,0.00,,,0.00,,2013-02-21 21:22:00,
2013-02-21 16:32:00,26.0,21.0,30.22,East,82,6.0,13.0,80,0.00,,,0.00,,2013-02-21 21:32:00,
2013-02-21 16:42:00,26.0,21.0,30.22,ENE,74,7.0,13.0,80,0.00,,,0.00,,2013-02-21 21:42:00,
2013-02-21 16:52:00,26.0,21.0,30.22,ENE,74,7.0,13.0,80,0.00,,,0.00,,2013-02-21 21:52:00,
2013-02-21 17:01:00,26.0,21.0,30.22,ESE,110,7.0,14.0,80,0.00,,,0.00,,2013-02-21 22:01:00,
2013-02-21 17:11:00,26.0,21.0,30.22,ESE,110,7.0,14.0,80,0.00,,,0.00,,2013-02-21 22:11:00,
2013-02-21 17:21:00,26.0,21.0,30.23,ESE,107,8.0,15.0,80,0.00,,,0.00,,2013-02-21 22:21:00,
2013-02-21 17:32:00,26.0,21.0,30.23,East,92,8.0,15.0,80,0.00,,,0.00,,2013-02-21 22:32:00,
2013-02-21 17:42:00,26.0,21.0,30.23,East,92,8.0,15.0,80,0.00,,,0.00,,2013-02-21 22:42:00,
2013-02-21 17:52:00,26.0,21.0,30.23,East,99,7.0,15.0,80,0.00,,,0.00,,2013-02-21 22:52:00,
2013-02-21 18:01:00,26.0,21.0,30.23,East,87,8.0,11.0,80,0.00,,,0.00,,2013-02-21 23:01:00,
2013-02-21 18:11:00,26.0,21.0,30.23,East,87,8.0,11.0,80,0.00,,,0.00,,2013-02-21 23:11:00,
2013-02-21 18:21:00,26.0,20.0,30.22,ESE,109,9.0,13.0,79,0.00,,,0.00,,2013-02-21 23:21:00,
2013-02-21 18:32:00,26.0,21.0,30.19,East,101,7.0,18.0,81,0.00,,,0.00,,2013-02-21 23:32:00,
2013-02-21 18:42:00,26.0,21.0,30.19,East,101,7.0,18.0,81,0.00,,,0.00,,2013-02-21 23:42:00,
2013-02-21 18:52:00,26.0,21.0,30.20,East,82,8.0,16.0,81,0.00,,,0.00,,2013-02-21 23:52:00,
2013-02-21 19:02:00,26.0,21.0,30.21,East,93,10.0,16.0,80,0.00,,,0.00,,2013-02-22 00:02:00,
2013-02-21 19:11:00,26.0,21.0,30.21,East,93,10.0,16.0,80,0.00,,,0.00,,2013-02-22 00:11:00,
2013-02-21 19:21:00,26.0,21.0,30.22,East,92,8.0,15.0,81,0.00,,,0.00,,2013-02-22 00:21:00,
2013-02-21 19:32:00,26.0,21.0,30.20,East,90,9.0,18.0,82,0.00,,,0.00,,2013-02-22 00:32:00,
2013-02-21 19:42:00,26.0,21.0,30.20,East,90,9.0,18.0,82,0.00,,,0.00,,2013-02-22 00:42:00,
2013-02-21 19:51:00,26.0,21.0,30.19,East,94,9.0,14.0,82,0.00,,,0.00,,2013-02-22 00:51:00,
2013-02-21 20:01:00,26.0,21.0,30.16,East,96,9.0,17.0,82,0.00,,,0.00,,2013-02-22 01:01:00,
2013-02-21 20:11:00,26.0,21.0,30.16,East,96,9.0,17.0,82,0.00,,,0.00,,2013-02-22 01:11:00,
2013-02-21 20:21:00,25.0,20.0,30.15,East,90,7.0,21.0,82,0.00,,,0.00,,2013-02-22 01:21:00,
2013-02-21 20:32:00,25.0,20.0,30.17,East,81,12.0,22.0,81,0.00,,,0.00,,2013-02-22 01:32:00,
2013-02-21 20:42:00,25.0,20.0,30.17,East,81,12.0,22.0,81,0.00,,,0.00,,2013-02-22 01:42:00,
2013-02-21 20:51:00,25.0,20.0,30.17,ESE,103,11.0,22.0,82,0.00,,,0.00,,2013-02-22 01:51:00,
2013-02-21 21:02:00,25.0,20.0,30.17,ESE,104,12.0,21.0,82,0.00,,,0.00,,2013-02-22 02:02:00,
2013-02-21 21:11:00,25.0,20.0,30.17,ESE,104,12.0,21.0,82,0.00,,,0.00,,2013-02-22 02:11:00,
2013-02-21 21:21:00,25.0,20.0,30.16,East,88,10.0,18.0,82,0.00,,,0.00,,2013-02-22 02:21:00,
2013-02-21 21:32:00,24.0,19.0,30.16,East,87,13.0,19.0,82,0.00,,,0.00,,2013-02-22 02:32:00,
2013-02-21 21:42:00,24.0,19.0,30.16,East,87,13.0,19.0,82,0.00,,,0.00,,2013-02-22 02:42:00,
2013-02-21 21:52:00,24.0,19.0,30.15,East,98,15.0,24.0,82,0.00,,,0.00,,2013-02-22 02:52:00,
2013-02-21 22:02:00,23.0,18.0,30.15,East,90,15.0,22.0,81,0.00,,,0.00,,2013-02-22 03:02:00,
2013-02-21 22:11:00,23.0,18.0,30.15,East,90,15.0,22.0,81,0.00,,,0.00,,2013-02-22 03:11:00,
2013-02-21 22:21:00,23.0,18.0,30.15,ESE,113,10.0,18.0,82,0.00,,,0.00,,2013-02-22 03:21:00,
2013-02-21 22:32:00,23.0,18.0,30.15,East,99,12.0,19.0,80,0.00,,,0.00,,2013-02-22 03:32:00,
2013-02-21 22:42:00,23.0,18.0,30.15,East,99,12.0,19.0,80,0.00,,,0.00,,2013-02-22 03:42:00,
2013-02-21 22:51:00,23.0,17.0,30.15,East,88,10.0,16.0,79,0.00,,,0.00,,2013-02-22 03:51:00,
2013-02-21 23:02:00,23.0,17.0,30.14,East,91,14.0,23.0,79,0.00,,,0.00,,2013-02-22 04:02:00,
2013-02-21 23:11:00,23.0,17.0,30.14,East,91,14.0,23.0,79,0.00,,,0.00,,2013-02-22 04:11:00,
2013-02-21 23:21:00,23.0,17.0,30.14,East,91,14.0,23.0,79,0.00,,,0.00,,2013-02-22 04:21:00,
2013-02-21 23:32:00,22.0,17.0,30.09,East,82,9.0,22.0,81,0.00,,,0.00,,2013-02-22 04:32:00,
2013-02-21 23:42:00,22.0,17.0,30.09,East,82,9.0,22.0,81,0.00,,,0.00,,2013-02-22 04:42:00,
2013-02-21 23:51:00,22.0,17.0,30.09,East,82,9.0,22.0,81,0.00,,,0.00,,2013-02-22 04:51:00,